Overview Statistics Trail Chart Weather Telemetry Raw packets
 

This is the latest recevied weather packets stored in our database for station/object G4KVI. If no packets are shown the sender has not sent any weather packets the latest 10 day(s).

<< 68 69 70 71 72 73 74 >>
Time Temp. Humidity Pressure Rain* Wind** Luminosity Snow
1788111904 17.78° C 84% 1007.7 hPa 0.25 mm - 74 W/m² -
1788111604 17.78° C 83% 1007.6 hPa 0.25 mm - 29 W/m² -
1788111304 17.78° C 82% 1007.6 hPa 0.25 mm - 31 W/m² -
1788111004 17.78° C 81% 1008 hPa 0 mm - 24 W/m² -
1788110704 17.78° C 80% 1007.7 hPa 0 mm - 22 W/m² -
1788110404 18.33° C 79% 1007.9 hPa 0 mm - 28 W/m² -
1788110104 18.33° C 79% 1007.9 hPa 0 mm - 46 W/m² -
1788109804 18.33° C 78% 1008.2 hPa 0 mm - 35 W/m² -
1788109504 18.33° C 77% 1008.1 hPa 0 mm - 57 W/m² -
1788109204 18.89° C 77% 1008.2 hPa 0 mm - 69 W/m² -
1788108904 18.89° C 76% 1008.2 hPa 0 mm - 115 W/m² -
1788108604 18.89° C 76% 1008.3 hPa 0 mm - 127 W/m² -
1788108304 18.89° C 77% 1008.4 hPa 0 mm - 108 W/m² -
1788108004 18.89° C 76% 1008.1 hPa 0 mm - 119 W/m² -
1788107704 18.89° C 77% 1008.2 hPa 0.25 mm - 76 W/m² -
1788107404 18.89° C 77% 1008.3 hPa 0.25 mm - 148 W/m² -
1788107104 18.33° C 77% 1008.1 hPa 0.25 mm - 131 W/m² -
1788106804 18.33° C 77% 1008 hPa 0.25 mm - 126 W/m² -
1788106504 18.33° C 78% 1008 hPa 0.25 mm - 111 W/m² -
1788106204 18.33° C 77% 1007.9 hPa 0.25 mm - 112 W/m² -
1788105904 18.33° C 79% 1008 hPa 0.25 mm - 137 W/m² -
1788105604 18.33° C 78% 1007.9 hPa 0.25 mm - 134 W/m² -
1788105304 18.33° C 78% 1007.8 hPa 0.25 mm - 111 W/m² -
1788105004 17.78° C 79% 1008.1 hPa 0.25 mm - 88 W/m² -
1788104704 17.78° C 80% 1008.1 hPa 0.25 mm - 96 W/m² -

* Rain latest hour (hover to see other rain measurements)
** Current wind speed in m/s (hover to see current wind gust speed)